Terminal Aerodrome Forecast
Issued by NWS

Home | Current Version | Previous Version | Text Only | Print | Product List | Glossary On
Versions: 1 2 3 4 5 6 7 8 9 10 11 12 13 14 15 16 17 18 19 20 21 22 23 24 25 26 27 28 29 30 31 32 33 34 35 36
000
FTUS45 KGJT 012342
TAFASE
TAF
KASE 012342Z 0200/0224 31006KT P6SM SCT080 BKN140
     FM020100 17007KT P6SM VCSH BKN090 OVC150
     FM020400 20005KT P6SM SCT090 BKN150
     FM021400 VRB04KT P6SM BKN090 BKN150
     FM021900 21005KT P6SM VCTS SCT070CB BKN100=

USA.gov is the U.S. government's official web portal to all federal, state and local government web resources and services.